Weather History for Akron, OH

Change the Weather History Date:

Saturday, August 9, 2014

  Actual Average (KCAK) Record (KCAK)
Temperature  
Mean Temperature 70 °F 71 °F  
Max Temperature 82 °F 81 °F 95 °F (2001)
Min Temperature 57 °F 61 °F 48 °F (1922)
Degree Days  
Heating Degree Days 0 0  
Month to date heating degree days 0  
Since 1 June heating degree days 55  
Since 1 July heating degree days 6  
Cooling Degree Days 4 7  
Month to date cooling degree days 63  
Year to date cooling degree days 462  
Since 1 June cooling degree days 420  
Growing Degree Days 20 (Base 50)    
Moisture  
Dew Point 58 °F    
Average Humidity 68    
Maximum Humidity 90    
Minimum Humidity 45    
Precipitation  
Precipitation 0.00 in 0.12 in 2.04 in (2007)
Month to date precipitation 1.09  
Year to date precipitation 24.73  
Snow  
Snow 0.00 in 0.00 in - ()
Month to date snowfall 0.0  
Since 1 June snowfall 0.0  
Since 1 July snowfall 0.0  
Snow Depth -    
Sea Level Pressure  
Sea Level Pressure 30.08 in    
Wind  
Wind Speed 3 mph (ENE)    
Max Wind Speed 8 mph    
Max Gust Speed -    
Visibility 9 miles    
Events      
T = Trace of Precipitation, MM = Missing Value Source: NWS Daily Summary

Daily Weather History Graph

Daily Weather History Graph

Search for Another Location

Airport:

Trip Planner

Search our weather history database for the weather conditions in past years. The results will help you decide how hot, cold, wet, or windy it might be!

Date:

Astronomy

Aug. 09, 2014 Rise Set
Actual Time 6:29 AM EDT 8:32 PM EDT
Civil Twilight 5:59 AM EDT 9:02 PM EDT
Nautical Twilight 5:22 AM EDT 9:39 PM EDT
Astronomical Twilight 4:42 AM EDT 10:19 PM EDT
Moon 7:32 PM EDT (8/9) 5:08 AM EDT (8/9)
Length of Visible Light 15h 03m
Length of Day
14h 02m
Waxing Gibbous, 98% of the Moon is Illuminated
Aug 9
Waxing Gibbous
Aug 10
Full
Aug 17
Last Quarter
Aug 25
New
Sep 2
First Quarter

Hourly Weather History & Observations

Time (EDT) Temp. Heat Index Dew Point Humidity Pressure Visibility Wind Dir Wind Speed Gust Speed Precip Events Conditions
12:54 AM 60.8 °F - 55.4 °F 82% 30.12 in 10.0 mi ENE 3.5 mph - N/A   Clear
1:54 AM 60.1 °F - 55.0 °F 83% 30.10 in 9.0 mi Calm Calm - N/A   Clear
2:54 AM 59.0 °F - 55.0 °F 87% 30.09 in 9.0 mi Calm Calm - N/A   Clear
3:54 AM 57.9 °F - 54.0 °F 87% 30.09 in 8.0 mi Calm Calm - N/A   Clear
4:54 AM 57.9 °F - 55.0 °F 90% 30.08 in 8.0 mi NE 3.5 mph - N/A   Clear
5:54 AM 57.9 °F - 54.0 °F 87% 30.09 in 8.0 mi Calm Calm - N/A   Clear
6:54 AM 57.9 °F - 54.0 °F 87% 30.10 in 7.0 mi Calm Calm - N/A   Clear
7:54 AM 62.1 °F - 57.0 °F 84% 30.11 in 10.0 mi Calm Calm - N/A   Clear
8:54 AM 68.0 °F - 55.9 °F 65% 30.11 in 10.0 mi Variable 4.6 mph - N/A   Clear
9:54 AM 70.0 °F - 57.9 °F 65% 30.10 in 10.0 mi East 5.8 mph - N/A   Clear
10:54 AM 73.9 °F - 60.1 °F 62% 30.10 in 10.0 mi NE 6.9 mph - N/A   Clear
11:54 AM 75.9 °F - 60.1 °F 58% 30.10 in 10.0 mi East 8.1 mph - N/A   Clear
1:54 PM 81.0 °F 81.7 °F 61.0 °F 50% 30.09 in 10.0 mi Variable 3.5 mph - N/A   Partly Cloudy
2:54 PM 81.0 °F 81.9 °F 62.1 °F 52% 30.08 in 10.0 mi ENE 6.9 mph - N/A   Partly Cloudy
3:54 PM 82.0 °F 82.1 °F 59.0 °F 45% 30.08 in 10.0 mi Calm Calm - N/A   Partly Cloudy
4:54 PM 82.0 °F 82.7 °F 61.0 °F 49% 30.06 in 10.0 mi East 6.9 mph - N/A   Clear
5:54 PM 82.0 °F 82.1 °F 59.0 °F 45% 30.06 in 10.0 mi ENE 8.1 mph - N/A   Partly Cloudy
6:54 PM 81.0 °F 81.6 °F 60.1 °F 49% 30.05 in 10.0 mi ENE 5.8 mph - N/A   Clear
7:54 PM 79.0 °F - 60.1 °F 52% 30.04 in 9.0 mi ENE 4.6 mph - N/A   Clear
8:54 PM 73.9 °F - 61.0 °F 64% 30.05 in 9.0 mi ENE 3.5 mph - N/A   Clear
9:54 PM 71.1 °F - 62.1 °F 73% 30.07 in 10.0 mi NE 6.9 mph - N/A   Clear
10:54 PM 69.1 °F - 62.1 °F 78% 30.09 in 10.0 mi ENE 6.9 mph - N/A   Clear
11:54 PM 68.0 °F - 61.0 °F 78% 30.08 in 10.0 mi East 3.5 mph - N/A   Clear